EW7114 Weather Reports


time (UTC)temp
C
wind
direction
speed
KPH
gust
KPH
rain 1hr
cm
rain 24hr
cm
rain mn
cm
humidity
%
barometer
mb
20260905165048 25 139 32.2 45.1 0.00 0.00 0.00 25 1005.4
20260905164547 24 148 30.6 40.2 0.00 0.00 0.00 26 1005.4
20260905164050 24 152 30.6 41.8 0.00 0.00 0.00 25 1005.4
20260905163547 24 136 29.0 41.8 0.00 0.00 0.00 26 1005.4
20260905163049 24 145 30.6 38.6 0.00 0.00 0.00 26 1005.5
20260905162547 25 158 22.5 45.1 0.00 0.00 0.00 26 1005.4
20260905162045 25 135 22.5 40.2 0.00 0.00 0.00 26 1005.4
20260905161543 24 161 24.1 40.2 0.00 0.00 0.00 26 1005.4
20260905161043 23 122 27.4 38.6 0.00 0.00 0.00 28 1005.3
20260905160541 23 122 27.4 38.6 0.00 0.00 0.00 27 1005.5
20260905160108 23 138 27.4 33.8 0.00 0.00 0.00 27 1005.4
20260905155542 23 138 24.1 35.4 0.00 0.00 0.00 27 1005.4
20260905155139 23 153 24.1 35.4 0.00 0.00 0.00 28 1005.5
20260905154540 23 136 25.7 35.4 0.00 0.00 0.00 27 1005.5
20260905154039 23 149 22.5 35.4 0.00 0.00 0.00 27 1005.5
20260905153538 23 122 24.1 33.8 0.00 0.00 0.00 26 1005.5
20260905153037 23 131 20.9 32.2 0.00 0.00 0.00 27 1005.5
20260905152537 23 130 17.7 37.0 0.00 0.00 0.00 29 1005.6
20260905152034 22 116 24.1 37.0 0.00 0.00 0.00 27 1005.6
20260905151535 22 137 24.1 32.2 0.00 0.00 0.00 29 1005.6
20260905151032 22 124 22.5 33.8 0.00 0.00 0.00 31 1005.6
20260905150531 21 115 25.7 32.2 0.00 0.00 0.00 31 1005.5
20260905150030 21 126 24.1 32.2 0.00 0.00 0.00 32 1005.6
20260905145527 21 117 25.7 38.6 0.00 0.00 0.00 31 1005.6
20260905145029 21 148 19.3 33.8 0.00 0.00 0.00 34 1005.6
20260905144526 20 128 17.7 25.7 0.00 0.00 0.00 35 1005.6
20260905144031 20 133 19.3 25.7 0.00 0.00 0.00 35 1005.6
20260905143527 20 149 17.7 24.1 0.00 0.00 0.00 35 1005.6
20260905143025 19 132 19.3 22.5 0.00 0.00 0.00 35 1005.6
20260905142524 18 139 12.9 20.9 0.00 0.00 0.00 37 1005.6
20260905142023 18 120 16.1 20.9 0.00 0.00 0.00 37 1005.4
20260905141523 17 133 12.9 20.9 0.00 0.00 0.00 38 1005.3
20260905141022 17 116 14.5 20.9 0.00 0.00 0.00 39 1005.2
20260905140525 16 131 12.9 20.9 0.00 0.00 0.00 39 1005.2
20260905140021 16 113 16.1 24.1 0.00 0.00 0.00 39 1005.1
20260905135520 16 146 17.7 24.1 0.00 0.00 0.00 40 1005.0
20260905135019 15 138 17.7 25.7 0.00 0.00 0.00 40 1004.9
20260905134521 15 152 14.5 22.5 0.00 0.00 0.00 41 1005.0
20260905134021 15 131 12.9 19.3 0.00 0.00 0.00 41 1004.9
20260905133517 15 161 12.9 19.3 0.00 0.00 0.00 39 1004.9
20260905133016 14 145 14.5 22.5 0.00 0.00 0.00 41 1004.7
20260905132517 14 151 12.9 22.5 0.00 0.00 0.00 42 1004.6
20260905132015 13 145 16.1 20.9 0.00 0.00 0.00 43 1004.5
20260905131514 13 157 11.3 17.7 0.00 0.00 0.00 43 1004.4
20260905131013 13 168 12.9 17.7 0.00 0.00 0.00 41 1004.4
20260905130512 15 165 12.9 22.5 0.00 0.00 0.00 40 1004.3
20260905130011 14 147 16.1 22.5 0.00 0.00 0.00 41 1004.3
20260905125513 14 172 12.9 16.1 0.00 0.00 0.00 40 1004.3
20260905125009 15 192 11.3 17.7 0.00 0.00 0.00 39 1004.2
20260905124508 15 145 11.3 17.7 0.00 0.00 0.00 39 1004.2
20260905124009 15 132 14.5 17.7 0.00 0.00 0.00 39 1004.1
20260905123505 16 159 12.9 24.1 0.00 0.00 0.00 38 1004.1
20260905123004 16 124 16.1 24.1 0.00 0.00 0.00 38 1004.0
20260905122508 16 116 16.1 25.7 0.00 0.00 0.00 39 1003.9
20260905122005 16 143 16.1 24.1 0.00 0.00 0.00 38 1003.8
20260905121502 17 153 14.5 24.1 0.00 0.00 0.00 37 1003.8
20260905121005 17 125 17.7 29.0 0.00 0.00 0.00 37 1003.8
20260905120501 17 137 20.9 29.0 0.00 0.00 0.00 37 1003.7
20260905120118 17 169 12.9 25.7 0.00 0.00 0.00 36 1003.8
20260905115600 16 122 12.9 27.4 0.00 0.00 0.00 37 1003.6
20260905115103 16 147 16.1 27.4 0.00 0.00 0.00 37 1003.7
20260905114559 16 117 16.1 24.1 0.00 0.00 0.00 37 1003.6
20260905114058 17 138 17.7 25.7 0.00 0.00 0.00 37 1003.6
20260905113559 17 145 17.7 27.4 0.00 0.00 0.00 36 1003.6
20260905113059 18 134 14.5 30.6 0.00 0.00 0.00 36 1003.6
20260905112558 18 122 20.9 35.4 0.00 0.00 0.00 35 1003.6
20260905112057 18 129 24.1 33.8 0.00 0.00 0.00 35 1003.6
20260905111610 18 131 19.3 33.8 0.00 0.00 0.00 36 1003.7
20260905111056 17 132 19.3 30.6 0.00 0.00 0.00 36 1003.6
20260905110555 17 139 22.5 33.8 0.00 0.00 0.00 38 1003.6
20260905110100 17 134 19.3 35.4 0.00 0.00 0.00 37 1003.5
20260905105556 17 134 22.5 35.4 0.00 0.00 0.00 37 1003.5
20260905105054 17 139 20.9 35.4 0.00 0.00 0.00 38 1003.4
20260905104554 17 132 25.7 35.4 0.00 0.00 0.00 38 1003.3
20260905104054 17 131 24.1 33.8 0.00 0.00 0.00 38 1003.3
20260905103554 17 133 24.1 33.8 0.00 0.00 0.00 39 1003.3
20260905103054 17 149 22.5 35.4 0.00 0.00 0.00 40 1003.3
20260905102551 17 134 20.9 35.4 0.00 0.00 0.00 40 1003.3
20260905102051 16 138 22.5 32.2 0.00 0.00 0.00 41 1003.3
20260905101550 16 130 22.5 33.8 0.00 0.00 0.00 40 1003.2
20260905101049 17 133 20.9 33.8 0.00 0.00 0.00 41 1003.2
20260905100548 17 144 24.1 33.8 0.00 0.00 0.00 41 1003.1
20260905100052 17 143 24.1 33.8 0.00 0.00 0.00 40 1003.0
20260905095547 17 145 22.5 30.6 0.00 0.00 0.00 39 1003.0
20260905095046 19 143 22.5 33.8 0.00 0.00 0.00 36 1002.9
20260905094546 20 151 25.7 35.4 0.00 0.00 0.00 33 1002.9
20260905094044 20 149 24.1 37.0 0.00 0.00 0.00 32 1002.7
20260905093544 20 155 25.7 37.0 0.00 0.00 0.00 32 1002.7
20260905093043 20 168 24.1 37.0 0.00 0.00 0.00 33 1002.6
20260905092546 20 156 25.7 33.8 0.00 0.00 0.00 33 1002.6
20260905092042 20 158 20.9 29.0 0.00 0.00 0.00 33 1002.6
20260905091613 20 183 22.5 37.0 0.00 0.00 0.00 32 1002.4
20260905091040 20 153 24.1 37.0 0.00 0.00 0.00 33 1002.4
20260905090540 20 157 29.0 33.8 0.00 0.00 0.00 33 1002.4
20260905090040 20 160 22.5 33.8 0.00 0.00 0.00 34 1002.4
20260905085539 19 170 25.7 32.2 0.00 0.00 0.00 36 1002.3
20260905085038 18 152 24.1 32.2 0.00 0.00 0.00 40 1002.4
20260905084540 17 145 22.5 32.2 0.00 0.00 0.00 42 1002.4
20260905084038 17 130 20.9 29.0 0.00 0.00 0.00 42 1002.4
20260905083537 17 129 17.7 27.4 0.00 0.00 0.00 43 1002.5
20260905083037 17 153 20.9 27.4 0.00 0.00 0.00 43 1002.4
20260905082536 17 135 19.3 30.6 0.00 0.00 0.00 42 1002.3
20260905082036 18 152 19.3 32.2 0.00 0.00 0.00 41 1002.3
20260905081535 18 140 17.7 22.5 0.00 0.00 0.00 40 1002.3
20260905081034 18 153 17.7 24.1 0.00 0.00 0.00 39 1002.2
20260905080536 18 145 16.1 22.5 0.00 0.00 0.00 37 1002.2
20260905080516 18 141 16.1 22.5 0.00 0.00 0.00 37 1002.2
20260905080040 19 155 16.1 22.5 0.00 0.00 0.00 36 1002.2
20260905075532 19 159 17.7 27.4 0.00 0.00 0.00 36 1002.1
20260905075030 18 155 19.3 27.4 0.00 0.00 0.00 39 1002.1
20260905074530 16 153 17.7 27.4 0.00 0.00 0.00 45 1002.0
20260905074033 17 143 19.3 27.4 0.00 0.00 0.00 45 1002.0
20260905073529 17 127 19.3 25.7 0.00 0.00 0.00 43 1002.0
20260905073028 19 140 17.7 25.7 0.00 0.00 0.00 40 1001.9
20260905072527 18 161 22.5 25.7 0.00 0.00 0.00 40 1001.8
20260905072026 17 149 19.3 32.2 0.00 0.00 0.00 43 1001.7
20260905071524 16 141 16.1 24.1 0.00 0.00 0.00 46 1001.6
20260905071027 17 137 16.1 27.4 0.00 0.00 0.00 45 1001.5
20260905070521 17 156 19.3 30.6 0.00 0.00 0.00 44 1001.4
20260905070024 17 144 22.5 30.6 0.00 0.00 0.00 43 1001.3
20260905065519 18 148 19.3 27.4 0.00 0.00 0.00 42 1001.2
20260905065018 18 130 17.7 29.0 0.00 0.00 0.00 41 1001.2
20260905064519 19 129 19.3 32.2 0.00 0.00 0.00 41 1001.2
20260905064016 18 136 19.3 29.0 0.00 0.00 0.00 41 1001.1
20260905063515 18 123 19.3 29.0 0.00 0.00 0.00 41 1001.1
20260905063015 18 131 17.7 25.7 0.00 0.00 0.00 41 1001.0
20260905062518 18 122 20.9 25.7 0.00 0.00 0.00 41 1001.0
20260905062013 18 136 17.7 25.7 0.00 0.00 0.00 42 1001.0
20260905061512 18 136 16.1 22.5 0.00 0.00 0.00 42 1000.9
20260905061012 19 120 16.1 27.4 0.00 0.00 0.00 41 1000.9
20260905060513 20 141 16.1 27.4 0.00 0.00 0.00 39 1000.8
20260905060012 20 146 19.3 29.0 0.00 0.00 0.00 38 1000.8
20260905055509 21 151 20.9 29.0 0.00 0.00 0.00 37 1000.6
20260905055009 21 166 20.9 33.8 0.00 0.00 0.00 37 1000.5
20260905054514 21 131 24.1 33.8 0.00 0.00 0.00 37 1000.5
20260905054006 21 147 20.9 33.8 0.00 0.00 0.00 36 1000.5
20260905053506 22 131 24.1 33.8 0.00 0.00 0.00 36 1000.4
20260905053007 22 148 22.5 35.4 0.00 0.00 0.00 35 1000.4
20260905052509 21 136 27.4 35.4 0.00 0.00 0.00 36 1000.4
20260905052006 21 129 16.1 29.0 0.00 0.00 0.00 37 1000.2
20260905051511 20 187 11.3 22.5 0.00 0.00 0.00 37 1000.2
20260905051004 21 149 14.5 22.5 0.00 0.00 0.00 36 1000.3
20260905050507 22 156 14.5 38.6 0.00 0.00 0.00 35 1000.3
20260905050004 23 158 22.5 38.6 0.00 0.00 0.00 34 1000.2
20260905045505 23 112 29.0 43.5 0.00 0.00 0.00 33 999.9
20260905045006 22 105 32.2 43.5 0.00 0.00 0.00 34 1000.0
20260905044504 22 127 12.9 37.0 0.00 0.00 0.00 34 1000.2
20260905044004 22 176 24.1 37.0 0.00 0.00 0.00 33 1000.2
20260905043504 21 171 16.1 25.7 0.00 0.00 0.00 35 1000.2
20260905043003 21 149 12.9 24.1 0.00 0.00 0.00 34 1000.3
20260905042504 22 158 14.5 24.1 0.00 0.00 0.00 34 1000.3
20260905042002 22 163 14.5 22.5 0.00 0.00 0.00 34 1000.1
20260905041502 21 149 14.5 22.5 0.00 0.00 0.00 35 1000.1
20260905041001 21 152 16.1 29.0 0.00 0.00 0.00 35 1000.2
20260905040502 21 141 14.5 29.0 0.00 0.00 0.00 33 1000.2
20260905040100 21 162 12.9 22.5 0.00 0.00 0.00 33 1000.1
20260905035600 21 159 12.9 22.5 0.00 0.00 0.00 33 1000.1
20260905035105 21 149 14.5 19.3 0.00 0.00 0.00 33 1000.1
20260905034611 21 132 11.3 17.7 0.00 0.00 0.00 34 999.9
20260905034058 22 136 12.9 17.7 0.00 0.00 0.00 31 999.9
20260905033559 22 157 9.7 24.1 0.00 0.00 0.00 31 999.9
20260905033101 23 119 11.3 32.2 0.00 0.00 0.00 31 999.9
20260905032559 24 144 16.1 32.2 0.00 0.00 0.00 29 999.8
20260905032058 24 157 17.7 30.6 0.00 0.00 0.00 29 999.7
20260905031606 25 179 17.7 35.4 0.00 0.00 0.00 28 999.7
20260905031058 25 182 20.9 35.4 0.00 0.00 0.00 28 999.6
20260905030558 24 180 17.7 30.6 0.00 0.00 0.00 28 999.6
20260905030058 24 165 14.5 27.4 0.00 0.00 0.00 28 999.4
20260905025558 24 169 12.9 20.9 0.00 0.00 0.00 28 999.4
20260905025059 24 145 12.9 29.0 0.00 0.00 0.00 28 999.2
20260905024602 24 161 16.1 30.6 0.00 0.00 0.00 28 999.0
20260905024057 24 170 17.7 32.2 0.00 0.00 0.00 28 999.0
20260905023559 23 147 12.9 27.4 0.00 0.00 0.00 29 998.9
20260905023100 23 143 16.1 27.4 0.00 0.00 0.00 29 998.8
20260905022556 23 141 14.5 22.5 0.00 0.00 0.00 30 998.7
20260905022058 24 135 16.1 25.7 0.00 0.00 0.00 30 998.7
20260905021558 24 148 16.1 25.7 0.00 0.00 0.00 29 998.7
20260905021055 25 152 19.3 29.0 0.00 0.00 0.00 28 998.6
20260905020555 25 152 20.9 29.0 0.00 0.00 0.00 28 998.6
20260905020055 25 152 16.1 24.1 0.00 0.00 0.00 28 998.6
20260905015555 25 166 17.7 27.4 0.00 0.00 0.00 27 998.5
20260905015055 25 159 20.9 33.8 0.00 0.00 0.00 28 998.4
20260905014554 25 157 20.9 37.0 0.00 0.00 0.00 28 998.4
20260905014054 26 156 20.9 37.0 0.00 0.00 0.00 28 998.4
20260905013554 26 172 19.3 32.2 0.00 0.00 0.00 28 998.4
20260905013054 26 161 22.5 33.8 0.00 0.00 0.00 27 998.3
20260905012554 26 164 20.9 40.2 0.00 0.00 0.00 28 998.3
20260905012054 27 162 29.0 40.2 0.00 0.00 0.00 27 998.3
20260905011556 27 169 24.1 40.2 0.00 0.00 0.00 27 998.3
20260905011054 27 134 30.6 45.1 0.00 0.00 0.00 27 998.3
20260905010553 27 179 27.4 48.3 0.00 0.00 0.00 27 998.3
20260905010054 27 180 35.4 48.3 0.00 0.00 0.00 27 998.3
20260905005552 27 181 22.5 43.5 0.00 0.00 0.00 26 998.2
20260905005052 27 193 29.0 43.5 0.00 0.00 0.00 26 998.2
20260905004552 28 167 25.7 45.1 0.00 0.00 0.00 26 998.3
20260905004049 28 176 29.0 45.1 0.00 0.00 0.00 26 998.3
20260905003548 28 172 32.2 46.7 0.00 0.00 0.00 27 998.2
20260905003049 28 181 30.6 61.2 0.00 0.00 0.00 27 998.2
20260905002549 28 171 40.2 61.2 0.00 0.00 0.00 26 998.3
20260905002046 28 173 30.6 49.9 0.00 0.00 0.00 26 998.3
20260905001554 28 180 35.4 49.9 0.00 0.00 0.00 25 998.4
20260905001045 28 159 24.1 41.8 0.00 0.00 0.00 26 998.3
20260905000545 28 163 29.0 38.6 0.00 0.00 0.00 26 998.3
20260905000048 28 172 29.0 48.3 0.00 0.00 0.00 26 998.3
20260904235548 28 155 30.6 56.3 0.00 0.00 0.00 26 998.4
20260904235043 28 196 38.6 56.3 0.00 0.00 0.00 26 998.4
20260904234543 28 153 30.6 49.9 0.00 0.00 0.00 26 998.4
20260904234042 28 174 32.2 48.3 0.00 0.00 0.00 26 998.5
20260904233542 28 175 25.7 46.7 0.00 0.00 0.00 26 998.5
20260904233044 28 189 32.2 45.1 0.00 0.00 0.00 25 998.5
20260904232541 28 170 29.0 49.9 0.00 0.00 0.00 25 998.5
20260904232041 29 153 37.0 49.9 0.00 0.00 0.00 25 998.6
20260904231551 29 174 33.8 45.1 0.00 0.00 0.00 24 998.5
20260904231039 28 181 30.6 51.5 0.00 0.00 0.00 25 998.6
20260904230539 29 140 33.8 49.9 0.00 0.00 0.00 24 998.5
20260904230039 29 146 33.8 49.9 0.00 0.00 0.00 25 998.7
20260904225539 29 159 32.2 48.3 0.00 0.00 0.00 24 998.6
20260904225036 29 145 29.0 48.3 0.00 0.00 0.00 25 998.6
20260904224546 29 177 30.6 49.9 0.00 0.00 0.00 25 998.8
20260904224037 28 151 30.6 40.2 0.00 0.00 0.00 24 998.8
20260904223534 28 158 22.5 43.5 0.00 0.00 0.00 26 998.8
20260904223036 28 145 33.8 56.3 0.00 0.00 0.00 26 998.8
20260904222536 28 138 37.0 48.3 0.00 0.00 0.00 25 998.9
20260904222032 28 151 37.0 53.1 0.00 0.00 0.00 25 999.0
20260904221532 28 179 32.2 51.5 0.00 0.00 0.00 24 999.1
20260904221032 28 145 32.2 49.9 0.00 0.00 0.00 26 999.0
20260904220532 28 145 32.2 43.5 0.00 0.00 0.00 25 999.1
20260904220030 28 169 32.2 49.9 0.00 0.00 0.00 25 999.1
20260904215530 28 143 32.2 49.9 0.00 0.00 0.00 26 999.1
20260904215029 28 138 29.0 56.3 0.00 0.00 0.00 26 999.3
20260904214528 28 168 29.0 56.3 0.00 0.00 0.00 25 999.3
20260904214026 28 144 25.7 53.1 0.00 0.00 0.00 26 999.3
20260904213529 27 157 38.6 53.1 0.00 0.00 0.00 25 999.4
20260904213028 28 140 33.8 51.5 0.00 0.00 0.00 25 999.4
20260904212527 28 136 30.6 49.9 0.00 0.00 0.00 25 999.5
20260904212024 28 150 35.4 49.9 0.00 0.00 0.00 25 999.7
20260904211523 28 166 25.7 38.6 0.00 0.00 0.00 24 999.6
20260904211026 28 165 30.6 46.7 0.00 0.00 0.00 25 999.8
20260904210521 28 135 29.0 46.7 0.00 0.00 0.00 25 999.7
20260904210021 28 177 30.6 43.5 0.00 0.00 0.00 25 999.9
20260904205521 28 161 30.6 40.2 0.00 0.00 0.00 25 999.8
20260904205020 27 163 27.4 56.3 0.00 0.00 0.00 25 999.9
20260904204518 27 147 35.4 56.3 0.00 0.00 0.00 25 999.9
20260904204018 27 174 33.8 48.3 0.00 0.00 0.00 24 1000.1
20260904203518 28 154 25.7 45.1 0.00 0.00 0.00 25 1000.1
20260904203016 27 171 27.4 41.8 0.00 0.00 0.00 25 1000.1
20260904202517 27 174 30.6 45.1 0.00 0.00 0.00 27 1000.0
20260904202014 26 124 24.1 48.3 0.00 0.00 0.00 27 1000.2
20260904201514 26 136 32.2 51.5 0.00 0.00 0.00 27 1000.2
20260904201013 26 147 32.2 54.7 0.00 0.00 0.00 27 1000.4
20260904200517 26 163 29.0 51.5 0.00 0.00 0.00 28 1000.4
20260904200013 26 163 29.0 51.5 0.00 0.00 0.00 26 1000.6
20260904195513 26 170 32.2 61.2 0.00 0.00 0.00 26 1000.5
20260904195012 26 188 35.4 61.2 0.00 0.00 0.00 26 1000.5
20260904194512 26 141 29.0 49.9 0.00 0.00 0.00 26 1000.5
20260904194012 26 163 37.0 56.3 0.00 0.00 0.00 25 1000.6
20260904193512 27 142 38.6 56.3 0.00 0.00 0.00 25 1000.6
20260904193011 27 141 32.2 46.7 0.00 0.00 0.00 24 1000.6
20260904192510 27 179 33.8 46.7 0.00 0.00 0.00 25 1000.7
20260904192010 26 165 37.0 53.1 0.00 0.00 0.00 26 1000.8
20260904191511 26 132 33.8 53.1 0.00 0.00 0.00 26 1000.7
20260904191009 26 151 30.6 49.9 0.00 0.00 0.00 28 1000.8
20260904190509 26 132 35.4 49.9 0.00 0.00 0.00 28 1000.9
20260904190010 26 150 25.7 49.9 0.00 0.00 0.00 27 1001.1
20260904185507 25 139 35.4 54.7 0.00 0.00 0.00 28 1001.2
20260904185007 25 149 29.0 54.7 0.00 0.00 0.00 29 1001.3
20260904184507 25 122 29.0 49.9 0.00 0.00 0.00 28 1001.2
20260904184007 25 164 33.8 49.9 0.00 0.00 0.00 27 1001.2
20260904183506 25 150 41.8 53.1 0.00 0.00 0.00 26 1001.3
20260904183012 26 159 32.2 46.7 0.00 0.00 0.00 27 1001.3
20260904182505 26 184 33.8 46.7 0.00 0.00 0.00 26 1001.4
20260904182005 25 134 38.6 49.9 0.00 0.00 0.00 28 1001.3
20260904181508 26 181 38.6 48.3 0.00 0.00 0.00 26 1001.4
20260904181008 26 151 29.0 48.3 0.00 0.00 0.00 27 1001.3
20260904180503 25 182 38.6 53.1 0.00 0.00 0.00 26 1001.5
20260904180004 25 165 37.0 56.3 0.00 0.00 0.00 27 1001.6
20260904175505 25 145 41.8 56.3 0.00 0.00 0.00 28 1001.5
20260904175002 25 161 35.4 56.3 0.00 0.00 0.00 27 1001.6
20260904174501 25 173 35.4 49.9 0.00 0.00 0.00 27 1001.6
20260904174001 25 182 41.8 51.5 0.00 0.00 0.00 27 1001.6
20260904173503 25 145 33.8 49.9 0.00 0.00 0.00 29 1001.6
20260904173003 25 168 35.4 53.1 0.00 0.00 0.00 29 1001.6
20260904172503 25 164 35.4 56.3 0.00 0.00 0.00 29 1001.5
20260904172001 25 169 32.2 56.3 0.00 0.00 0.00 30 1001.6
20260904171602 25 147 40.2 57.9 0.00 0.00 0.00 28 1001.6
20260904171500 25 163 35.4 57.9 0.00 0.00 0.00 29 1001.6
20260904171100 24 145 38.6 57.9 0.00 0.00 0.00 29 1001.6
20260904170600 25 183 37.0 49.9 0.00 0.00 0.00 27 1001.6
20260904170100 24 165 40.2 62.8 0.00 0.00 0.00 29 1001.5
20260904165600 24 158 41.8 62.8 0.00 0.00 0.00 28 1001.6